OBJECT C, 65546

Orbit data source: Space-Track

You're viewing an Uncataloged Satellite

Recently launched and/or uncataloged satellites may have evolving metadata. Metadata may include but not limited to: Owner, Maufacturer, Bus, Motor, and Mission.

OBJECT C, 65546 is a satellite owned by CAST (CN) in LEO that was launched on Sat, 06 Sep 2025 UTC via a CHANG ZHENG 6A launch vehicle from the Taiyaun Space Center, China (TSC). Unknown objects in Earth's orbit typically refer to objects detected orbiting the Earth but have not yet been identified or cataloged. These objects could be anything from previously untracked satellites, spent rocket stages, debris from satellite collisions, or even natural meteoroids temporarily captured by Earth's gravity.

Loading next visibility...
Identifier
65546, 2025-199C
Orbit
LEO
Country
Flag of CNCN / PRC
Related business
Manufacturer
DFH
Mission
Operational Defense Sigint
Bus & Motor
YG40, Unknown motor
Mass
~500 kg wet, ~500 kg dry
Launch date (UTC)
2025-09-06 (9 months ago)
Launch vehicle
CHANG ZHENG 6A
Launch site
Taiyaun Space Center, China (TSC)
Object type
Unknown
Shape & HBR
Box + 2 Pan, 1.1 m
Radar Cross Section
5.141 m², Large (>1 m²)

Expand to show TLE details & history
Last TLE update: 12 hours ago

TLE from 12 hours ago
0 OBJECT C
1 65546U 25199C   26171.36971075  .00000129  00000-0  59690-4 0  9992
2 65546  85.9909  42.6618 0002411  87.9278 272.2181 14.12449966 40513
Epoch: 2026-06-20T08:52Z
TLE epoch observation values (Epoch: 2026-06-20T08:52:23.008Z)
Latitude
-0.00006°
Longitude
0.98061°
Altitude
853.947 km
Speed
7.426 km/s
True Right ascension
02h 50m 38s
True Declination
0° 00' 00"
Sunlit
Object was in daylight at epoch
Visualization orbit readout
Latitude
Unknown
Longitude
Unknown
Altitude
Unknown
Speed
Unknown
Apparent Right ascension
Unknown
Apparent Declination
Unknown
Sunlit
N/A
Visualization observer readout
Local Sidereal Time
07:20:28
Azimuth
Unknown
Elevation
Unknown
Doppler factor
Unknown
Orbital elements
Apogee altitude
849.746 km
Perigee altitude
846.262 km
Semi-major axis
7,226.141 km
Eccentricity
0.00024
Inclination
85.9909°
RAAN
42.6618°
Arg. of periapsis
87.9278°
True anomaly
272.19049°
Mean anomaly
272.2181°
Eccentric anomaly
272.2043°
Mean motion
3.53332 °/min
Orbital period
101.89 mins
BSTAR
0.00005969
Loading maneuver chart data...
Computing Atmospheric mass density...
Loading historical data...
Loading historical data...
Loading historical data...
Loading historical data...
Loading historical data...
Loading historical data...
Loading historical data...
Other satellites on launch #199 in the year 2025 (2025-09-06 UTC)

Documentation

Showing up to 5 results
|